timestamp,surface_pressure_avg,surface_temp_avg,battery_voltage,lat,long
2021-06-11 00:09:01+00:00,364.2663,8.6,12.49,47.84626,-54.09684
2021-06-11 00:19:01+00:00,360.7179,8.6,12.49,47.84626,-54.09684
2021-06-11 00:29:01+00:00,367.4229,8.6,12.49,47.84626,-54.09684
2021-06-11 00:39:01+00:00,366.5162,8.6,12.49,47.84626,-54.09684
2021-06-11 00:49:01+00:00,357.158,8.5,12.49,47.84626,-54.09684
2021-06-11 00:59:01+00:00,353.9295,8.4,12.49,47.84626,-54.09684
2021-06-11 01:09:01+00:00,354.1945,8.3,12.49,47.84626,-54.09684
2021-06-11 01:19:00+00:00,349.8463,8.3,12.49,47.84626,-54.09684
2021-06-11 01:29:00+00:00,339.6479,8.3,12.49,47.84626,-54.09684
2021-06-11 01:39:00+00:00,341.5963,8.3,12.49,47.84626,-54.09684
2021-06-11 01:49:00+00:00,342.5630000000001,8.3,12.49,47.84626,-54.09684
2021-06-11 01:59:00+00:00,332.8413,8.2,12.49,47.84626,-54.09684
2021-06-11 02:09:00+00:00,322.7963,8.2,12.49,47.84626,-54.09684
2021-06-11 02:19:00+00:00,322.7163,8.2,12.49,47.84626,-54.09684
2021-06-11 02:29:00+00:00,319.318,8.1,12.49,47.84626,-54.09684
2021-06-11 02:39:00+00:00,304.663,8.1,12.49,47.84626,-54.09684
2021-06-11 02:49:00+00:00,301.9863,8.1,12.49,47.84626,-54.09684
2021-06-11 02:59:00+00:00,304.0197,8.09,12.49,47.84626,-54.09684
2021-06-11 03:09:00+00:00,293.3464,8.1,12.49,47.84626,-54.09684
2021-06-11 03:19:01+00:00,279.5847,8.2,12.49,47.84626,-54.09684
2021-06-11 03:29:01+00:00,279.8214,8.1,12.49,47.84626,-54.09684
2021-06-11 03:39:01+00:00,275.7081,8.1,12.49,47.84626,-54.09684
2021-06-11 03:49:01+00:00,264.0547,8.2,12.49,47.84626,-54.09684
2021-06-11 03:59:01+00:00,256.4197,8.2,12.49,47.84626,-54.09684
2021-06-11 04:09:01+00:00,251.8331,8.2,12.49,47.84626,-54.09684
2021-06-11 04:19:01+00:00,244.2631,8.2,12.49,47.84626,-54.09684
2021-06-11 04:29:01+00:00,233.6231,8.2,12.49,47.84626,-54.09684
2021-06-11 04:39:01+00:00,228.8948,8.2,12.49,47.84626,-54.09684
2021-06-11 04:49:01+00:00,224.6248,8.2,12.49,47.84626,-54.09684
2021-06-11 04:59:01+00:00,217.8947,8.2,12.49,47.84626,-54.09684
2021-06-11 05:09:01+00:00,211.7698,8.2,12.49,47.84626,-54.09684
2021-06-11 05:19:00+00:00,208.9799,8.2,12.49,47.84626,-54.09684
2021-06-11 05:29:00+00:00,206.7598,8.2,12.49,47.84626,-54.09684
2021-06-11 05:39:00+00:00,204.1664,8.2,12.49,47.84626,-54.09684
2021-06-11 05:49:00+00:00,200.5215,8.2,12.49,47.84626,-54.09684
2021-06-11 05:59:00+00:00,200.183,8.2,12.49,47.84626,-54.09684
2021-06-11 06:09:00+00:00,201.1814,8.2,12.49,47.84626,-54.09684
2021-06-11 06:19:01+00:00,200.8498,8.2,12.49,47.84626,-54.09684
2021-06-11 06:29:01+00:00,201.5915,8.15,12.49,47.84626,-54.09684
2021-06-11 06:39:01+00:00,201.2098,8.12,12.49,47.84626,-54.09684
2021-06-11 06:49:01+00:00,204.9431,8.2,12.49,47.84626,-54.09684
2021-06-11 06:59:01+00:00,209.7931,8.27,12.49,47.84626,-54.09684
2021-06-11 07:09:01+00:00,211.8415,8.2,12.49,47.84626,-54.09684
2021-06-11 07:19:01+00:00,212.8731,8.18,12.49,47.84626,-54.09684
2021-06-11 07:29:01+00:00,216.2964,8.2,12.49,47.84626,-54.09684
2021-06-11 07:39:01+00:00,220.6897,8.27,12.49,47.84626,-54.09684
2021-06-11 07:49:01+00:00,223.423,8.25,12.49,47.84626,-54.09684
2021-06-11 07:59:01+00:00,227.4832,8.2,12.49,47.84626,-54.09684
2021-06-11 08:09:01+00:00,230.6113,8.1,12.49,47.84626,-54.09684
2021-06-11 08:19:00+00:00,232.0347,8.17,12.49,47.84626,-54.09684
2021-06-11 08:29:00+00:00,232.9698,8.2,12.49,47.84626,-54.09684
2021-06-11 08:39:00+00:00,236.9548,8.2,12.49,47.84626,-54.09684
2021-06-11 08:49:00+00:00,240.0098,8.2,12.49,47.84626,-54.09684
2021-06-11 08:59:00+00:00,243.3564,8.27,12.49,47.84626,-54.09684
2021-06-11 09:09:00+00:00,246.9297,8.3,12.49,47.84626,-54.09684
2021-06-11 09:19:01+00:00,253.8097,8.3,12.49,47.84626,-54.09684
2021-06-11 09:29:01+00:00,259.4831,8.3,12.49,47.84626,-54.09684
2021-06-11 09:39:01+00:00,263.1347,8.3,12.49,47.84626,-54.09684
2021-06-11 09:49:01+00:00,267.6563,8.3,12.49,47.84626,-54.09684
2021-06-11 09:59:01+00:00,276.6863,8.3,12.49,47.84626,-54.09684
2021-06-11 10:09:01+00:00,282.7731,8.3,12.49,47.84626,-54.09684
2021-06-11 10:19:01+00:00,284.8164,8.3,12.57,47.84626,-54.09684
2021-06-11 10:29:01+00:00,286.988,8.3,12.57,47.84626,-54.09684
2021-06-11 10:39:01+00:00,295.4514,8.3,12.57,47.84626,-54.09684
2021-06-11 10:49:01+00:00,304.5464,8.3,12.57,47.84626,-54.09684
2021-06-11 10:59:01+00:00,308.77299999999997,8.28,12.57,47.84626,-54.09684
2021-06-11 11:09:01+00:00,310.5046,8.2,12.57,47.84626,-54.09684
2021-06-11 11:19:01+00:00,317.1913,8.1,12.89,47.84626,-54.09684
2021-06-11 11:29:01+00:00,323.568,7.97,12.89,47.84626,-54.09684
2021-06-11 11:39:01+00:00,322.1613,7.9,12.89,47.84626,-54.09684
2021-06-11 11:49:01+00:00,323.4747,7.9,12.89,47.84626,-54.09684
2021-06-11 11:59:01+00:00,325.3197,7.86,12.89,47.84626,-54.09684
2021-06-11 12:09:01+00:00,321.278,7.8,12.89,47.84626,-54.09684
2021-06-11 12:19:00+00:00,317.7646,7.84,13.21,47.84626,-54.09684
2021-06-11 12:29:00+00:00,318.808,7.87,13.21,47.84626,-54.09684
2021-06-11 12:39:00+00:00,322.943,7.86,13.21,47.84626,-54.09684
2021-06-11 12:49:00+00:00,320.5197,7.9,13.21,47.84626,-54.09684
2021-06-11 12:59:00+00:00,320.7213,7.9,13.21,47.84626,-54.09684
2021-06-11 13:09:00+00:00,322.5396,7.92,13.21,47.84626,-54.09684
2021-06-11 13:19:01+00:00,323.1813,7.98,14.08,47.84626,-54.09684
2021-06-11 13:29:01+00:00,319.0147,8.0,14.08,47.84626,-54.09684
2021-06-11 13:39:01+00:00,315.6046,8.0,14.08,47.84626,-54.09684
2021-06-11 13:49:01+00:00,311.5313,8.0,14.08,47.84626,-54.09684
2021-06-11 13:59:01+00:00,308.7663,7.99,14.08,47.84626,-54.09684
2021-06-11 14:09:01+00:00,307.0931,7.9,14.08,47.84626,-54.09684
2021-06-11 14:19:00+00:00,301.5247,7.92,14.16,47.84626,-54.09684
2021-06-11 14:29:00+00:00,295.2397,7.96,14.16,47.84626,-54.09684
2021-06-11 14:39:00+00:00,293.0563,7.9,14.16,47.84626,-54.09684
2021-06-11 14:49:00+00:00,290.4613,7.97,14.16,47.84626,-54.09684
2021-06-11 14:59:00+00:00,281.7513,8.0,14.16,47.84626,-54.09684
2021-06-11 15:09:00+00:00,275.3497,7.99,14.16,47.84626,-54.09684
2021-06-11 15:19:01+00:00,271.6198,8.19,14.48,47.84626,-54.09684
2021-06-11 15:29:01+00:00,266.463,8.2,14.48,47.84626,-54.09684
2021-06-11 15:39:01+00:00,255.7898,8.2,14.48,47.84626,-54.09684
2021-06-11 15:49:01+00:00,251.0648,8.2,14.48,47.84626,-54.09684
2021-06-11 15:59:01+00:00,249.9248,8.18,14.48,47.84626,-54.09684
2021-06-11 16:09:01+00:00,245.1131,8.1,14.48,47.84626,-54.09684
2021-06-11 16:19:01+00:00,237.8997,8.17,14.48,47.84626,-54.09684
2021-06-11 16:29:01+00:00,233.458,8.1,14.48,47.84626,-54.09684
2021-06-11 16:39:01+00:00,227.6431,8.0,14.48,47.84626,-54.09684
2021-06-11 16:49:01+00:00,220.0181,8.0,14.48,47.84626,-54.09684
2021-06-11 16:59:01+00:00,215.3198,8.0,14.48,47.84626,-54.09684
2021-06-11 17:09:01+00:00,211.2832,8.0,14.48,47.84626,-54.09684
2021-06-11 17:19:01+00:00,206.6515,8.04,14.08,47.84626,-54.09684
2021-06-11 17:29:01+00:00,203.8898,8.09,14.08,47.84626,-54.09684
2021-06-11 17:39:01+00:00,201.0498,8.09,14.08,47.84626,-54.09684
2021-06-11 17:49:01+00:00,198.7515,8.0,14.08,47.84626,-54.09684
2021-06-11 17:59:01+00:00,197.9065,8.0,14.08,47.84626,-54.09684
2021-06-11 18:09:01+00:00,198.5164,7.98,14.08,47.84626,-54.09684
2021-06-11 18:19:01+00:00,200.5965,7.9,14.0,47.84626,-54.09684
2021-06-11 18:29:01+00:00,202.5415,7.9,14.0,47.84626,-54.09684
2021-06-11 18:39:01+00:00,202.4082,7.9,14.0,47.84626,-54.09684
2021-06-11 18:49:01+00:00,205.8581,7.9,14.0,47.84626,-54.09684
2021-06-11 18:59:01+00:00,212.8864,7.9,14.0,47.84626,-54.09684
2021-06-11 19:09:01+00:00,213.2248,7.9,14.0,47.84626,-54.09684
2021-06-11 19:19:01+00:00,213.9331,7.95,14.0,47.84626,-54.09684
2021-06-11 19:29:01+00:00,222.7681,7.96,14.0,47.84626,-54.09684
2021-06-11 19:39:01+00:00,228.7047,7.97,14.0,47.84626,-54.09684
2021-06-11 19:49:01+00:00,230.5048,7.98,14.0,47.84626,-54.09684
2021-06-11 19:59:01+00:00,234.0597,8.0,14.0,47.84626,-54.09684
2021-06-11 20:09:01+00:00,238.9181,8.0,14.0,47.84626,-54.09684
2021-06-11 20:19:01+00:00,242.4631,8.0,13.76,47.84626,-54.09684
2021-06-11 20:29:01+00:00,247.0965,8.0,13.76,47.84626,-54.09684
2021-06-11 20:39:01+00:00,251.4414,8.0,13.76,47.84626,-54.09684
2021-06-11 20:49:01+00:00,257.5897,8.0,13.76,47.84626,-54.09684
2021-06-11 20:59:01+00:00,262.0447,7.99,13.76,47.84626,-54.09684
2021-06-11 21:09:01+00:00,267.4664,7.9,13.76,47.84626,-54.09684
2021-06-11 21:19:01+00:00,272.6781,7.8,13.6,47.84626,-54.09684
2021-06-11 21:29:01+00:00,278.698,7.63,13.6,47.84626,-54.09684
2021-06-11 21:39:01+00:00,281.1647,7.86,13.6,47.84626,-54.09684
2021-06-11 21:49:01+00:00,285.4263,7.71,13.6,47.84626,-54.09684
2021-06-11 21:59:01+00:00,290.6097,7.1,13.6,47.84626,-54.09684
2021-06-11 22:09:01+00:00,296.8331,7.0,13.6,47.84626,-54.09684
2021-06-11 22:19:01+00:00,304.283,7.0,13.29,47.84626,-54.09684
2021-06-11 22:29:01+00:00,312.3447,7.0,13.29,47.84626,-54.09684
2021-06-11 22:39:01+00:00,318.1613,7.0,13.29,47.84626,-54.09684
2021-06-11 22:49:01+00:00,325.6713,7.0,13.29,47.84626,-54.09684
2021-06-11 22:59:01+00:00,332.3829,6.99,13.29,47.84626,-54.09684
2021-06-11 23:09:01+00:00,337.0196,7.0,13.29,47.84626,-54.09684
2021-06-11 23:19:01+00:00,340.6247,7.0,12.97,47.84626,-54.09684
2021-06-11 23:29:01+00:00,345.8947,6.98,12.97,47.84626,-54.09684
2021-06-11 23:39:01+00:00,347.6845,6.98,12.97,47.84626,-54.09684
2021-06-11 23:49:01+00:00,349.9296,6.97,12.97,47.84626,-54.09684
2021-06-11 23:59:01+00:00,355.4497,6.99,12.97,47.84626,-54.09684
